ROMMA est une association bénévole à but non lucratif. Votre soutien est indispensable : ADHERER à ROMMA ou FAIRE un DON

Le Versoud - (38, Isère)

Vallée du Grésivaudan (220 m)   Longitude: 05° 51' 44" E   Latitude: 45° 13' 06" N Station partenaire n°6
 

Détail journalier du     <<     >>

Température Humidité Pression Vent Dir Rafale Dir. rafale Ensol.
Heure (°C) (%) (hPa) (km/h) (km/h) (min)
01:00 13.992101600---0
02:00 12.993101602OSO0
03:00 12.994101600---0
04:00 12.194101500---0
05:00 11.394101500---0
06:00 11.295101400---0
07:00 11.695101400---0
08:00 11.795101400---0
09:00 12.295101502OSO0
10:00 13.194101506SE0
11:00 13.893101500---0
12:00 14.691101505E0
13:00 15.691101500---5
14:00 18.779101400---20
15:00 20.066101302E15
16:00 20.1641013010ESE0
17:00 18.274101302ESE0
18:00 15.986101308SSE0
19:00 15.2891013011SSE0
20:00 14.692101300---0
21:00 14.391101200---0
22:00 13.893101300---0
23:00 13.394101200---0
minuit 13.394101200---0

Graphique du 18-10-2019

 

Serveur OMMA